Theta_e
310 311 311 311 312 312 312 313 315 314 311 308 305 308 306 307 302 314 319 320 318 310 300 300 300 300 302 306 306 306 304 302 304 303 305 303 305 303 303 302 302 303 303 303 301 302 298 299 295 297 299 299 301 303 303 302 304 303 300 301 302 324 291 288 290 294 297 300 302 304 304 300 299 298 297 296 294 294 291 288 291 287 291 289 286 282 287
310 310 311 311 311 311 312 313 314 314 312 309 308 303 304 307 306 309 317 321 317 306 291 289 289 299 305 306 305 308 307 306 305 305 306 304 303 303 303 302 303 301 305 302 300 302 292 299 300 297 300 299 305 302 303 302 300 302 302 296 303 292 293 293 285 281 286 290 293 297 301 300 296 294 297 296 297 298 298 296 292 288 289 290 285 282 283
310 310 310 310 311 311 311 312 313 314 312 312 309 302 305 305 309 309 311 316 313 301 301 297 294 301 303 303 302 303 305 307 307 307 307 309 304 303 301 302 302 301 304 304 303 303 300 297 300 300 301 300 305 306 307 308 306 311 309 324 304 293 293 287 282 283 281 284 282 288 290 291 295 299 298 299 299 297 294 292 287 283 291 292 282 284 290
310 310 310 310 310 310 311 312 313 314 313 312 309 306 303 303 293 300 305 311 309 306 309 306 303 300 301 298 300 303 301 306 308 309 308 309 306 302 302 302 303 301 302 301 301 301 302 300 298 300 298 300 305 305 309 309 308 323 333 319 305 299 298 291 288 285 284 286 290 295 297 296 294 297 298 299 300 300 297 291 285 285 288 289 291 293 294
310 310 310 310 310 310 311 311 312 314 313 312 308 305 303 304 298 294 292 303 303 304 305 305 305 296 302 292 302 301 303 304 305 309 303 305 306 305 304 303 302 301 301 300 300 300 302 302 301 302 301 303 305 307 307 310 321 334 320 314 301 294 290 297 295 294 295 296 297 299 300 296 297 297 298 298 298 299 296 289 288 293 292 287 294 296 296
310 310 310 310 310 310 310 311 313 313 313 312 310 302 304 294 300 306 308 299 287 294 292 305 303 305 305 299 305 302 301 302 299 305 307 307 306 302 299 304 303 302 301 303 295 298 302 302 299 302 300 301 305 305 309 310 325 314 306 311 299 293 286 296 297 297 298 299 299 300 299 299 298 298 299 298 299 300 295 293 296 295 289 288 294 297 297
310 310 310 310 309 310 310 311 312 313 312 311 308 301 304 304 305 305 310 298 303 303 304 307 307 304 304 301 305 302 302 300 303 304 303 305 304 303 291 297 300 301 303 302 299 301 294 291 300 302 302 302 300 299 303 305 306 305 304 306 303 294 291 299 299 298 297 298 299 298 298 297 298 298 299 299 296 297 298 298 299 298 294 297 298 298 299
309 309 310 309 309 309 310 310 311 312 311 311 306 303 300 299 300 298 305 305 303 304 304 306 305 300 304 295 302 304 303 302 304 305 305 298 300 304 301 299 301 301 300 302 299 303 304 301 299 305 303 296 301 300 301 299 304 304 304 306 304 297 288 300 297 291 295 298 298 298 298 297 297 298 298 299 298 298 299 300 301 300 299 300 299 298 298
309 309 309 309 309 309 309 310 311 311 311 307 304 304 305 305 307 307 301 297 300 303 303 302 301 296 298 298 301 305 305 303 305 304 307 304 306 304 302 305 306 306 305 305 303 308 307 307 306 306 303 298 302 298 302 303 301 306 304 304 304 297 293 298 294 290 290 295 297 297 297 296 296 297 298 298 298 296 298 294 299 297 297 297 297 295 296
308 309 309 309 309 309 309 309 310 311 311 307 308 303 310 309 310 311 305 295 302 300 302 302 301 291 301 304 304 302 302 304 305 299 306 308 308 307 307 308 304 302 302 302 306 309 309 309 309 308 307 305 305 303 304 305 302 300 302 304 299 296 296 291 287 285 285 292 298 299 294 292 289 291 296 299 299 298 299 300 301 303 300 294 290 295 300
308 308 308 308 308 308 309 309 310 310 311 306 304 304 308 305 304 306 306 295 296 299 299 298 298 302 305 306 303 305 303 304 305 298 294 306 307 309 309 306 303 299 302 310 312 311 311 311 311 309 308 306 305 304 304 306 306 306 304 300 299 300 298 291 292 287 286 292 296 293 289 284 285 293 300 301 299 301 301 300 302 306 302 296 296 299 302
308 308 308 308 308 308 309 309 309 310 310 310 310 306 308 310 308 307 301 293 294 300 298 297 298 302 303 304 304 303 302 303 303 306 302 305 307 310 309 306 306 293 307 313 310 311 314 313 311 309 308 307 305 305 305 303 303 307 307 303 300 299 297 291 291 287 289 289 288 287 282 283 293 300 305 303 306 309 307 307 309 310 309 305 304 305 305
307 308 307 307 307 308 308 308 309 309 310 310 310 305 309 312 307 304 302 299 291 299 297 298 302 303 306 303 302 304 305 306 307 306 306 305 308 308 311 309 306 307 312 310 311 310 306 304 302 303 303 303 304 304 303 302 304 306 304 307 302 295 292 290 290 284 286 286 283 282 281 290 298 302 306 308 306 303 305 304 309 311 310 308 302 304 305
307 307 307 307 308 308 308 308 308 309 309 310 308 308 309 310 304 304 302 295 293 300 301 299 300 300 305 304 304 303 306 305 306 307 303 308 306 307 311 311 310 312 311 311 308 302 294 292 287 293 296 297 296 297 300 303 303 303 305 305 305 301 296 292 289 292 287 284 284 288 292 295 296 300 302 303 300 298 294 291 303 310 311 307 304 306 308
306 307 307 307 307 307 308 308 308 308 309 309 309 309 309 309 308 305 306 303 290 295 300 290 299 301 303 305 305 301 301 302 302 302 307 309 307 312 310 311 312 312 311 308 304 301 295 290 287 286 288 290 288 289 299 298 301 304 302 302 304 303 300 293 292 288 286 285 287 284 285 284 287 297 305 309 309 304 302 299 297 309 312 312 308 307 308
305 305 306 307 307 307 307 308 308 308 308 309 308 308 309 311 311 308 305 302 297 290 293 301 303 303 301 302 306 302 299 301 300 302 302 304 306 309 311 312 313 312 311 309 303 292 291 292 288 287 286 286 293 293 290 296 298 301 303 302 303 302 301 297 292 286 288 285 284 283 283 283 289 299 307 310 308 308 305 301 297 306 310 312 311 309 308
305 305 306 306 307 307 307 307 308 308 308 308 305 307 306 312 309 307 304 303 301 291 301 304 304 304 302 302 305 304 305 294 304 294 292 298 304 307 308 312 313 311 309 306 303 294 294 289 293 290 291 296 293 288 293 296 293 295 300 302 301 298 294 290 287 287 284 284 285 284 283 287 300 305 308 310 310 307 297 288 288 301 310 312 312 310 309
304 305 305 306 306 306 307 307 307 308 308 309 305 304 306 312 312 309 305 302 296 295 303 305 303 298 299 302 301 306 308 307 306 306 302 304 306 304 306 309 306 311 312 300 299 290 289 289 291 289 287 296 300 298 288 291 291 288 293 296 293 293 290 286 290 286 286 286 284 285 288 297 306 308 310 311 309 300 289 283 293 304 309 312 311 311 311
304 304 305 305 305 306 306 306 307 307 308 308 305 304 306 309 310 309 304 301 300 291 302 307 307 304 307 310 307 308 308 307 306 295 290 298 303 306 308 309 310 299 307 298 296 288 290 291 298 293 290 294 300 289 294 292 288 294 297 294 294 292 290 288 288 287 287 286 285 285 286 293 306 309 311 312 304 291 285 297 305 311 310 311 312 311 311
303 304 304 304 305 305 305 306 306 307 308 308 305 299 303 308 311 310 304 299 302 299 303 304 305 303 308 305 301 302 303 304 305 301 295 290 305 305 299 295 300 307 302 299 287 294 292 289 292 300 293 292 297 300 293 295 298 298 298 294 290 291 291 288 288 288 289 287 284 287 286 295 309 312 306 307 292 291 300 311 313 313 311 311 311 311 312
303 303 304 304 304 304 305 305 306 306 307 308 306 300 299 306 310 311 310 305 300 295 298 307 308 306 306 306 307 305 303 302 303 300 302 301 305 297 288 291 297 305 296 298 292 293 295 290 297 297 296 296 300 300 292 292 294 301 301 297 295 298 291 287 287 291 286 286 286 286 288 297 309 306 294 304 306 311 311 312 311 314 312 310 309 310 310
303 303 303 303 304 304 305 305 306 306 306 307 306 301 297 302 309 311 310 309 302 294 296 305 307 306 308 309 308 308 306 306 308 309 303 298 303 302 301 308 308 307 308 310 300 300 301 300 301 294 292 294 297 294 297 290 288 293 301 298 290 297 295 290 290 295 290 287 287 298 304 309 312 312 311 312 314 315 314 313 311 310 311 312 310 309 310
302 302 303 303 303 304 304 305 305 305 306 306 304 298 297 301 304 309 307 302 305 307 307 305 306 306 308 309 310 311 310 311 309 310 308 303 290 301 305 305 305 312 312 310 303 303 303 301 295 301 294 298 297 293 292 291 286 295 291 301 298 304 309 304 299 300 304 305 306 309 308 310 311 312 312 311 311 312 312 311 309 310 310 310 310 310 311
302 302 302 302 303 303 304 304 304 305 305 306 305 300 298 300 304 305 303 301 298 292 296 300 301 295 299 302 308 311 310 309 309 309 312 311 295 291 306 313 315 311 309 309 310 305 303 302 301 302 291 299 298 287 289 290 294 297 294 296 300 305 304 302 297 303 294 294 307 308 308 308 309 309 310 310 311 310 310 310 310 310 311 310 311 311 312
302 302 302 302 302 303 303 303 304 304 305 305 304 303 301 300 304 304 299 289 289 289 288 287 294 303 306 309 309 308 309 311 312 310 311 311 309 304 304 312 313 308 306 308 309 300 290 300 300 300 291 301 300 287 296 294 292 300 288 292 297 298 306 300 301 300 294 295 307 309 311 309 309 309 308 308 309 309 309 310 310 311 311 311 311 310 310
301 301 302 302 302 302 303 303 303 304 304 305 304 298 297 297 302 305 304 303 302 298 288 287 295 307 307 305 304 307 310 310 310 310 310 311 312 312 313 314 314 315 311 310 306 299 291 289 294 299 295 291 307 294 294 300 297 301 296 296 302 303 306 294 302 300 302 307 308 307 307 308 308 309 308 309 309 309 309 308 308 309 310 310 309 308 309
301 301 301 301 301 302 302 303 303 303 303 304 302 297 297 299 302 302 300 300 295 288 290 288 297 301 303 300 304 307 308 308 309 309 310 311 312 312 313 311 309 309 310 308 306 297 292 293 294 298 300 300 304 301 302 299 301 298 295 301 305 302 297 303 300 295 291 295 303 305 297 298 305 307 309 309 309 309 308 309 308 308 308 307 306 306 307
300 301 301 301 301 301 302 302 302 303 303 303 302 299 298 298 300 303 304 304 298 288 288 289 292 296 302 299 304 306 308 308 308 307 307 310 311 311 310 310 308 305 304 299 294 295 293 294 299 300 299 301 299 294 304 303 301 296 299 300 303 301 302 300 293 290 291 305 310 311 306 305 307 309 310 310 310 309 308 308 308 308 308 306 305 304 304
300 300 300 301 301 301 301 302 302 302 303 302 298 297 296 298 300 302 304 305 304 298 293 294 298 294 289 295 304 303 306 307 305 305 306 307 310 310 309 310 308 306 306 295 288 288 288 289 301 300 299 305 302 294 298 290 289 289 295 306 307 307 308 305 305 305 307 310 308 309 305 305 307 310 311 311 311 310 310 310 308 306 306 306 305 304 304
300 300 300 300 300 301 301 301 301 302 302 297 294 291 286 289 299 303 305 306 304 301 290 287 285 288 299 300 298 301 302 303 303 303 303 304 307 309 309 308 307 307 302 292 292 294 288 288 297 304 307 312 301 299 296 293 292 295 305 309 309 310 311 309 309 306 308 313 310 308 307 307 309 311 311 311 312 311 308 308 306 306 306 305 304 304 303
299 299 300 300 300 300 301 301 301 301 301 294 293 285 282 280 290 303 303 304 305 300 288 289 287 293 292 297 299 298 300 301 300 300 301 303 304 306 309 310 307 306 295 296 295 291 292 293 296 301 308 309 300 296 295 295 291 296 304 307 308 311 312 312 310 311 312 312 311 309 309 308 307 304 305 306 308 308 307 309 311 312 307 306 305 304 304
299 299 299 299 300 300 300 300 301 301 296 294 291 289 286 289 299 302 303 305 305 299 289 286 285 283 284 290 298 302 301 301 302 302 301 305 303 305 305 308 304 307 298 292 289 292 292 296 299 301 301 304 301 299 298 295 291 293 302 304 306 309 311 309 310 312 314 313 308 304 303 304 303 300 300 304 306 306 307 309 310 312 316 305 303 304 305
299 299 299 299 299 300 300 300 300 299 294 298 303 303 303 303 303 303 303 303 301 297 293 285 280 283 284 287 296 299 303 301 299 300 297 303 302 304 301 306 306 305 306 297 293 291 293 297 300 299 303 306 298 292 296 294 296 300 302 305 305 309 308 308 309 310 309 306 304 300 299 301 303 303 302 304 306 304 304 304 303 303 303 304 304 303 303
298 299 299 299 299 299 300 300 300 300 300 296 290 291 296 301 300 302 302 300 298 298 293 286 283 282 281 292 288 293 301 294 294 296 289 300 305 303 296 302 302 296 299 297 291 295 298 299 292 296 302 300 300 295 290 295 300 302 303 304 305 306 306 305 303 304 303 303 304 304 303 304 304 303 305 305 304 303 302 301 303 303 302 302 302 302 302
298 298 298 299 299 299 300 299 296 294 292 293 292 294 297 302 302 305 304 300 291 286 289 288 287 283 283 283 283 288 298 294 292 296 292 294 304 301 300 293 297 293 290 305 294 296 291 294 299 292 291 299 295 290 292 296 299 301 302 303 305 304 304 302 302 304 304 305 305 304 303 302 302 302 301 301 302 302 303 303 303 303 302 301 301 301 302
298 298 298 299 299 299 296 296 294 292 290 290 291 299 304 304 304 302 303 303 297 290 288 288 286 282 282 279 279 285 297 291 294 297 298 299 300 302 300 291 291 294 302 299 288 295 294 300 295 289 294 292 291 293 296 299 300 301 302 303 304 304 303 303 303 303 304 305 304 303 301 301 301 301 301 301 301 301 302 302 301 302 301 301 301 301 301
298 298 299 299 297 294 290 288 293 292 290 294 297 301 305 304 303 303 300 298 300 302 292 289 285 283 286 283 286 288 294 285 293 294 297 293 290 290 292 291 290 290 295 292 293 291 299 304 297 290 289 289 292 298 300 301 301 301 301 303 304 305 304 304 305 304 304 304 303 301 301 301 301 302 302 302 301 301 301 300 300 301 300 300 300 301 301
298 298 295 291 290 285 284 285 289 294 300 301 303 296 295 296 286 288 290 290 293 297 291 293 286 289 290 288 284 291 293 288 293 289 289 291 292 290 291 290 289 291 288 288 292 302 299 296 292 290 292 296 297 299 301 302 303 304 304 304 304 304 305 304 304 304 301 299 299 300 301 301 301 302 302 302 302 302 302 302 302 302 301 301 301 302 301
296 294 292 292 287 284 283 284 296 303 298 300 296 289 286 288 285 285 286 289 290 287 292 290 285 289 290 288 289 294 292 290 288 289 288 294 288 286 289 289 290 291 287 289 292 303 290 290 289 290 289 293 295 298 300 302 303 304 304 304 304 304 304 304 304 304 302 301 301 302 303 302 301 301 302 303 303 303 303 303 303 302 302 302 302 302 301
292 288 287 286 285 287 293 297 303 299 295 287 287 285 280 287 285 282 288 285 284 288 291 285 290 289 290 289 288 288 294 290 284 284 286 288 296 288 287 287 285 288 285 287 287 299 290 287 289 288 290 295 296 297 300 302 302 303 303 304 304 304 304 304 304 305 303 302 303 304 304 304 304 303 303 303 303 302 302 302 302 302 302 302 303 302 301
289 289 288 285 288 291 292 296 295 292 287 285 284 285 284 281 285 284 283 281 281 282 289 287 288 287 291 292 291 288 294 296 293 297 292 284 292 292 287 287 289 288 284 286 288 292 290 288 287 289 292 294 296 300 301 302 302 302 303 303 303 304 304 304 304 305 305 305 304 304 304 304 304 304 304 303 303 302 302 301 301 301 301 301 301 301 301
291 291 292 295 294 294 290 290 286 284 284 284 282 280 283 284 287 285 285 281 281 283 285 288 284 286 286 291 290 291 291 295 295 291 290 289 291 286 286 285 284 285 284 286 292 288 288 286 286 287 291 296 299 300 301 301 302 302 302 302 302 303 304 304 304 305 306 305 304 304 304 304 304 304 304 303 303 302 302 302 302 302 302 301 302 301 301
297 297 295 292 289 286 286 283 284 284 280 280 279 277 282 279 281 282 282 284 288 284 285 292 289 293 293 296 291 294 291 295 291 288 289 287 290 287 282 283 285 283 285 291 290 286 287 286 287 288 293 297 300 300 301 302 302 302 302 302 301 303 304 304 305 305 305 305 305 304 304 303 303 304 304 303 302 301 301 301 301 301 301 301 301 300 300
295 294 289 286 284 285 285 276 284 282 280 281 279 275 279 278 280 281 279 280 284 285 287 285 286 289 284 291 290 288 292 293 289 286 286 287 287 286 286 283 283 290 294 285 284 286 287 287 288 289 295 298 301 301 301 302 301 301 302 302 302 303 305 305 305 304 304 304 304 304 304 303 303 303 303 303 302 301 300 300 300 300 300 300 300 299 299
287 284 284 283 281 284 281 276 283 281 276 276 280 279 280 277 278 279 279 285 288 284 289 289 288 288 287 291 293 291 289 286 288 286 283 286 285 286 285 283 286 287 286 283 284 283 284 286 291 293 295 296 299 300 300 301 302 302 302 302 303 304 305 304 304 304 303 303 303 303 302 302 302 301 301 301 301 301 300 300 300 300 300 299 299 299 299
284 283 282 279 276 280 280 277 280 276 280 280 278 278 279 280 281 282 287 288 286 287 289 290 290 290 289 291 287 286 286 285 286 285 286 286 283 283 286 287 287 285 283 283 281 283 284 286 290 294 297 298 298 299 299 302 303 303 303 302 302 303 304 304 304 304 303 303 302 302 301 301 300 300 299 300 300 300 300 300 300 300 299 298 297 298 299
285 286 283 283 279 280 283 278 279 280 281 280 282 283 283 284 286 285 287 289 287 287 289 292 292 292 288 290 289 287 287 286 285 285 285 283 282 284 286 284 282 282 281 280 280 282 285 289 292 295 297 297 299 301 302 303 302 302 303 303 303 303 303 303 303 303 303 302 302 301 301 300 300 300 299 299 299 299 299 299 299 299 299 298 298 298 298
282 286 284 277 277 280 277 279 282 282 283 284 282 285 286 286 285 285 288 289 290 290 289 290 289 290 289 289 289 285 285 285 284 285 285 285 286 282 282 282 281 282 283 282 281 284 286 290 293 294 295 299 301 302 302 301 301 302 302 302 303 302 302 302 302 302 302 301 301 300 300 299 299 299 299 299 298 299 299 299 299 298 298 297 297 296 296
285 283 281 280 280 280 281 282 282 280 281 282 284 286 286 286 286 286 288 289 291 290 290 291 285 286 283 284 281 282 283 286 283 284 286 284 281 279 279 277 279 280 282 284 283 288 292 293 294 295 298 300 301 302 302 302 302 302 302 302 302 302 302 302 301 301 301 301 300 299 299 299 299 299 299 299 298 298 299 299 299 298 297 297 296 296 296
284 283 283 281 281 282 285 286 283 282 283 282 283 284 285 286 286 289 291 291 291 292 291 290 291 284 281 282 283 284 284 285 284 286 283 281 281 281 281 278 279 280 283 288 288 290 293 295 295 297 298 300 301 302 302 302 300 303 303 303 303 303 303 302 301 300 300 299 299 298 298 298 298 298 298 298 298 298 297 298 297 296 296 296 296 295 295
285 284 283 285 281 279 279 278 278 279 281 283 285 286 287 286 287 288 291 292 291 287 287 285 284 283 283 282 282 282 284 286 284 282 281 282 284 281 282 280 282 283 287 291 293 294 293 294 297 297 298 300 301 302 302 303 303 303 303 303 303 302 301 301 300 299 299 299 298 294 298 297 298 298 299 299 298 297 297 295 295 296 297 296 296 295 295
283 280 280 282 285 285 285 285 285 285 285 286 286 288 288 286 288 291 294 293 290 284 283 284 284 283 282 282 284 286 287 285 282 282 282 283 283 284 280 282 287 288 290 292 294 295 296 298 299 300 300 301 302 302 302 303 303 303 303 302 302 301 301 301 300 300 299 299 299 298 298 297 297 297 297 297 296 296 295 295 296 295 296 295 295 294 295
Wind_Speed
16 16 15 16 17 18 19 19 17 11 12 4 5 3 3 1 6 11 19 10 3 1 1 2 2 3 3 3 6 6 5 4 4 6 6 5 7 3 1 2 1 2 2 0 0 0 1 3 3 2 2 4 4 7 9 9 10 8 0 2 1 6 3 1 3 6 5 5 4 3 5 4 2 2 4 4 5 8 8 7 6 5 0 3 0 1 4
15 16 15 15 16 17 18 18 18 10 8 2 4 2 2 4 5 9 5 1 3 1 2 2 4 4 5 4 7 6 6 6 7 5 7 2 4 1 1 4 2 3 1 1 1 1 2 3 1 2 1 2 1 7 10 8 2 4 6 5 4 2 3 6 2 3 4 6 6 5 6 4 1 2 3 5 3 5 2 4 2 5 3 7 7 3 2
14 15 15 15 15 15 17 18 17 12 5 4 2 2 4 5 4 6 9 2 5 3 4 4 4 3 3 3 7 6 3 3 5 5 10 7 6 1 2 2 3 4 0 1 1 1 5 1 4 1 1 2 1 4 10 8 4 3 5 7 4 4 3 3 3 3 3 1 0 3 5 3 4 1 2 1 8 6 4 2 0 3 1 5 3 2 4
13 14 15 15 14 14 15 16 16 14 5 5 1 2 3 3 2 6 5 2 1 2 2 1 2 3 3 4 6 3 4 3 5 5 10 15 7 4 2 2 2 3 1 0 0 1 1 2 2 2 1 1 2 2 10 9 4 7 11 7 4 2 1 4 6 7 7 4 5 5 3 2 2 4 2 1 4 6 4 5 5 5 3 4 6 8 4
12 12 14 14 14 14 14 15 15 14 3 2 1 2 2 3 3 2 3 7 1 2 1 1 0 2 1 1 2 3 2 4 8 4 2 2 1 1 1 1 2 2 4 1 2 2 1 1 1 0 0 0 1 3 6 6 9 12 5 3 6 3 2 0 6 5 6 5 4 5 0 4 4 1 4 3 9 6 7 7 4 5 10 3 3 4 10
11 11 12 14 14 14 14 14 14 15 4 1 1 2 2 1 5 1 1 1 3 3 2 4 3 4 2 3 2 6 7 5 3 6 3 7 2 0 6 2 1 2 1 1 1 4 1 1 1 1 3 3 2 3 1 2 6 8 2 2 4 5 3 2 3 0 3 4 2 2 4 1 1 3 2 8 2 0 4 2 4 8 8 9 7 6 9
10 11 12 13 14 14 14 14 14 13 6 1 2 2 3 3 4 3 5 3 3 2 4 6 2 5 2 2 2 4 4 7 6 2 6 6 3 1 1 4 5 4 1 2 1 1 2 3 1 0 1 3 2 2 2 2 3 4 2 3 2 6 1 1 1 0 3 4 4 4 6 3 2 2 3 6 5 2 1 3 5 7 6 5 7 8 11
9 10 11 12 13 13 13 14 14 14 2 1 2 4 1 3 1 4 6 3 7 6 4 3 3 3 3 1 3 3 4 7 8 3 3 3 5 5 1 3 8 7 5 1 1 0 1 2 2 2 2 5 0 3 3 3 1 2 2 2 1 6 2 5 2 3 1 3 5 6 4 5 3 2 3 5 4 6 3 3 4 9 5 2 4 7 6
9 9 10 12 13 13 13 13 13 14 2 2 3 3 4 3 2 2 5 7 6 5 3 5 4 3 2 1 5 3 3 5 11 11 5 4 3 3 4 7 9 6 3 1 3 1 1 1 2 3 2 1 4 3 3 5 5 1 1 1 1 5 1 3 2 1 5 4 6 4 4 4 4 2 3 5 6 7 3 3 2 4 4 1 4 6 5
9 9 10 11 12 12 13 12 12 12 4 4 2 4 2 3 2 2 3 4 3 6 4 5 1 4 3 2 3 2 8 11 12 8 5 1 6 6 5 5 4 6 6 6 2 2 2 2 3 2 2 4 5 4 5 9 8 4 2 0 5 2 5 2 2 3 2 5 2 3 4 6 6 2 2 4 5 5 3 5 5 1 7 7 6 9 6
9 9 9 10 11 12 12 12 12 11 5 4 3 4 3 3 4 4 2 4 3 5 5 6 5 2 1 1 6 7 9 10 8 6 5 11 8 6 4 5 4 5 3 2 3 4 4 2 2 0 3 4 4 4 5 5 8 7 7 3 1 5 7 4 3 3 3 3 4 2 2 0 2 4 3 3 6 9 9 2 2 4 1 5 6 8 4
9 9 9 9 10 11 12 12 12 11 7 5 5 5 3 4 5 3 4 4 4 2 4 6 4 2 1 4 5 9 11 11 10 8 11 10 9 4 5 5 4 3 4 3 2 3 2 3 3 4 4 6 5 7 4 5 2 6 9 9 5 6 6 5 3 5 2 1 3 3 1 6 6 6 6 3 11 16 13 5 5 6 7 3 8 8 10
9 9 9 9 9 10 11 11 12 12 10 6 4 7 3 2 3 4 4 4 2 3 5 6 6 8 5 7 11 8 8 11 9 11 12 9 3 4 1 2 4 4 12 13 5 5 4 1 2 1 3 5 5 6 7 7 3 3 1 8 11 6 7 4 1 4 2 3 2 2 3 3 5 8 3 5 6 5 13 10 10 10 8 4 4 3 6
9 9 9 8 8 9 10 11 11 12 11 8 4 5 5 3 4 4 3 2 3 4 2 7 10 9 3 5 5 9 8 10 11 8 9 7 7 3 2 3 5 7 9 8 3 3 3 6 2 5 4 6 5 3 4 2 5 6 5 3 6 11 5 7 2 0 4 3 6 7 3 6 2 2 3 2 2 3 7 5 4 6 6 4 7 6 8
8 8 8 9 9 9 9 10 11 11 11 10 5 5 5 4 4 4 4 4 3 4 2 3 1 5 6 3 6 7 6 7 10 9 10 10 5 1 3 6 9 9 10 2 2 4 2 2 2 2 3 2 0 3 3 1 2 2 4 6 7 10 9 4 6 2 5 6 1 1 1 3 4 3 7 4 3 1 9 9 1 8 8 6 3 11 9
7 7 8 8 9 9 9 9 10 11 11 10 4 5 5 3 2 4 5 4 2 5 5 8 6 4 4 4 3 5 4 5 4 6 9 7 4 4 4 9 9 8 4 3 2 3 1 2 2 3 2 2 3 1 2 2 1 4 4 6 5 6 5 8 7 4 3 3 4 3 3 5 6 5 6 8 3 1 3 8 2 4 5 6 3 7 6
8 7 7 8 8 9 8 8 9 10 9 8 5 5 4 4 4 4 4 4 4 5 6 3 3 3 4 3 2 3 4 2 1 3 5 5 8 8 10 9 5 5 7 1 1 2 2 3 3 2 2 2 0 3 2 0 1 2 5 7 9 6 2 5 4 3 3 6 3 3 3 2 3 5 5 5 5 0 3 1 2 3 5 4 3 6 5
9 8 7 7 8 8 8 8 9 9 9 8 4 5 5 2 2 2 3 5 5 5 8 7 3 2 2 1 2 3 0 3 3 1 3 5 5 5 7 6 8 6 5 1 1 3 2 2 2 2 2 4 1 1 3 2 2 2 0 0 1 3 1 3 9 6 3 8 1 1 2 4 3 2 4 4 0 3 3 4 6 2 1 1 5 5 3
10 8 7 7 7 8 8 8 8 9 9 9 5 3 4 5 5 3 3 5 4 5 3 4 3 4 2 2 2 2 3 1 3 2 2 5 2 8 8 7 3 4 7 1 2 2 3 2 0 3 2 2 1 3 1 0 2 2 1 1 2 1 3 2 4 4 5 3 5 6 3 6 4 4 3 2 2 4 5 5 3 6 3 2 5 8 4
9 8 7 7 7 8 8 8 8 8 10 9 4 3 6 5 5 5 5 4 3 5 7 6 2 4 2 1 2 2 5 2 1 4 3 3 3 7 7 6 7 3 5 3 2 1 1 2 3 1 1 2 2 2 1 1 1 0 0 2 3 6 4 4 4 2 2 2 2 1 2 3 4 2 2 4 2 3 6 5 2 4 6 7 5 5 2
9 9 8 7 7 7 7 8 8 8 9 9 6 3 5 3 2 2 4 6 3 4 6 1 1 0 2 2 0 1 4 3 2 3 2 2 2 1 3 6 4 0 2 2 2 2 1 1 3 1 1 1 4 1 2 0 2 2 1 1 1 1 2 1 3 4 5 3 3 3 4 4 3 4 2 2 4 6 6 7 5 1 3 6 6 4 3
9 8 8 7 7 7 7 7 8 8 9 9 9 2 3 3 4 4 5 4 5 4 5 1 2 5 7 7 6 5 6 6 3 0 1 2 2 1 2 1 2 1 1 1 3 3 4 1 1 3 3 3 4 1 0 1 1 4 2 2 1 1 1 6 4 2 1 2 3 3 2 1 2 5 5 3 2 4 6 7 5 6 2 1 6 5 4
8 8 8 7 7 7 6 7 8 8 9 9 6 1 3 5 6 5 6 4 3 4 3 4 5 7 8 9 10 10 10 9 7 3 3 1 3 3 2 3 1 1 2 3 2 2 0 2 1 0 1 1 1 3 4 1 2 2 1 2 2 1 1 1 3 2 1 2 1 3 2 3 6 5 4 7 5 5 9 9 7 2 4 4 7 5 6
8 8 8 8 7 7 6 7 7 8 9 9 5 3 3 3 7 5 2 0 1 5 7 2 2 4 5 9 6 7 8 8 8 7 3 4 1 1 2 1 1 2 2 1 1 1 0 0 2 0 1 1 2 2 1 3 1 1 0 4 3 2 5 3 1 1 4 1 1 3 6 3 6 8 5 6 6 5 5 7 6 5 4 5 4 7 6
8 8 8 8 8 8 7 7 7 8 9 9 7 3 3 4 2 1 2 1 2 2 4 6 5 9 6 5 5 4 4 8 6 7 6 6 5 2 1 0 1 1 2 0 1 5 4 4 4 3 2 1 1 0 1 1 1 0 2 2 3 4 3 2 3 2 2 5 6 3 2 4 5 9 8 6 6 5 5 5 5 6 5 4 5 6 5
8 8 7 8 8 8 8 7 7 8 9 10 8 2 2 4 4 5 3 2 1 1 4 3 5 1 1 3 3 3 7 4 8 10 9 9 8 6 1 1 1 2 2 1 3 5 2 1 1 0 1 3 1 1 0 0 2 1 1 2 1 3 3 2 2 2 2 4 4 4 6 5 3 3 4 5 7 6 5 5 6 6 6 5 4 4 4
8 8 8 8 8 8 8 9 8 8 9 10 6 3 3 5 5 4 3 2 2 3 2 3 5 5 5 8 8 6 6 4 4 8 9 10 11 7 3 2 3 0 1 2 2 4 2 1 1 0 0 2 1 1 0 3 0 1 2 3 3 3 4 2 5 4 1 3 3 2 6 1 1 2 5 4 4 7 5 4 5 6 6 6 8 5 4
7 7 8 8 8 8 8 9 8 9 9 10 6 6 4 4 4 5 4 3 3 4 2 5 7 9 7 6 4 3 4 3 3 5 6 9 11 9 7 6 3 4 1 3 0 1 2 2 2 2 1 3 2 4 1 1 2 1 2 1 2 1 3 4 1 6 3 3 2 11 2 4 5 7 6 6 5 5 5 4 4 5 6 6 7 6 5
7 8 8 8 8 9 8 9 9 9 10 8 6 7 5 7 7 5 5 3 2 3 4 5 6 3 1 5 6 6 3 2 4 4 4 7 10 9 9 7 7 4 2 4 2 3 3 3 2 3 2 3 2 4 1 2 1 4 5 2 1 2 2 3 3 2 2 2 5 7 4 7 6 6 5 5 4 6 4 3 7 9 8 6 6 6 6
8 8 8 8 8 8 9 9 9 9 8 5 3 1 2 3 3 5 4 0 4 4 2 2 4 4 3 4 5 4 7 8 6 4 5 4 8 10 9 8 5 5 3 3 4 2 3 1 2 2 2 3 2 1 0 2 2 5 3 4 6 2 1 1 3 2 4 2 2 5 4 5 5 7 6 5 4 6 7 7 8 5 4 5 6 4 4
8 8 8 8 9 8 9 9 9 9 7 2 2 2 2 1 2 1 9 7 4 2 2 1 5 5 6 3 3 8 9 7 6 6 5 5 5 8 9 9 4 7 3 1 1 4 3 2 3 2 2 4 2 1 3 2 3 2 3 6 9 6 5 4 7 6 6 5 8 4 1 3 2 3 4 4 4 5 4 3 5 7 6 5 5 5 3
8 8 8 8 8 9 9 9 9 8 2 1 2 4 3 3 1 8 9 4 5 2 1 1 2 2 3 3 3 2 4 5 3 2 2 3 3 5 6 10 5 7 5 4 3 2 3 4 3 3 4 7 6 2 2 3 5 5 2 6 6 5 4 6 7 8 8 7 5 2 2 1 1 3 3 5 6 6 10 8 7 6 7 5 5 7 9
8 8 8 8 9 9 9 10 11 7 3 6 11 14 17 23 21 9 2 5 4 2 1 1 2 2 0 4 4 3 3 1 2 2 3 3 3 3 4 6 5 4 2 4 1 3 4 4 4 4 7 6 4 2 3 8 7 5 7 5 4 2 2 4 4 6 7 7 5 3 3 3 4 2 2 5 7 8 8 7 4 6 9 10 9 7 6
8 8 9 9 9 10 10 11 11 11 9 4 5 5 7 16 14 8 5 2 3 2 0 2 1 0 4 5 5 6 2 3 3 5 3 2 3 4 4 6 3 5 4 8 4 0 1 3 5 4 3 3 3 2 5 7 8 10 9 10 4 3 4 3 3 5 6 6 4 5 7 4 2 5 7 6 5 2 4 5 8 10 7 8 6 6 6
8 9 9 10 10 10 11 10 5 2 4 4 5 5 8 14 11 6 5 3 0 1 0 2 0 1 0 1 2 7 2 3 2 2 5 4 1 4 2 3 1 4 3 1 0 4 3 4 5 3 7 3 4 5 5 7 9 10 9 8 8 7 4 4 5 5 4 4 3 2 2 5 6 5 6 5 5 6 9 5 8 11 8 5 5 5 5
8 8 9 9 10 7 4 4 2 3 4 5 6 6 11 13 11 5 6 4 2 1 1 2 2 3 3 2 2 5 1 3 4 2 3 1 3 3 1 4 4 5 2 5 4 3 3 3 3 5 1 4 7 6 8 8 8 9 10 11 9 9 8 10 6 6 5 3 6 3 6 4 5 4 4 6 5 5 7 7 5 7 8 8 6 5 4
8 8 8 8 3 0 2 3 2 4 6 5 7 8 2 5 2 1 2 1 2 1 3 2 2 4 6 5 1 5 1 4 2 3 2 3 5 2 3 1 5 2 2 2 4 4 5 1 2 3 3 7 6 6 8 8 8 8 8 10 10 8 7 9 10 7 8 10 3 5 7 8 6 6 7 7 6 5 8 7 6 9 9 7 5 6 6
7 6 2 0 1 1 2 3 4 5 11 10 5 1 1 2 1 1 2 2 2 3 3 2 5 2 2 4 7 5 1 5 1 2 1 1 3 3 1 3 4 2 6 4 5 4 3 3 5 7 7 5 4 6 7 7 8 8 9 9 8 7 8 8 9 10 10 3 6 5 5 7 7 6 11 9 9 10 9 7 6 6 6 5 6 6 6
4 2 0 1 2 3 4 4 3 4 2 1 1 1 1 0 2 0 2 2 1 4 2 4 7 6 5 5 6 4 1 3 6 2 2 3 2 3 1 4 3 1 3 1 4 7 3 2 2 3 8 4 5 8 6 7 7 7 6 6 5 5 5 6 8 10 9 9 11 12 13 12 12 6 7 10 7 6 7 7 7 7 8 8 8 7 7
2 2 2 2 4 7 5 3 5 4 2 2 1 2 2 2 3 3 2 3 2 2 3 8 4 5 8 9 5 6 1 2 2 3 2 1 1 3 2 2 2 2 3 3 4 5 5 5 3 3 9 8 8 4 6 8 7 6 5 5 5 4 4 6 7 7 8 5 10 8 6 10 11 12 10 10 9 8 5 6 6 7 8 8 8 8 6
1 1 1 3 3 2 2 1 4 3 2 1 1 1 1 2 2 1 2 3 2 2 3 2 2 4 5 6 6 7 4 2 3 1 1 2 4 2 2 1 2 2 1 3 3 3 2 2 3 8 12 5 6 6 6 6 8 7 7 6 5 5 3 4 6 8 11 9 9 8 10 11 11 10 9 10 9 8 6 6 6 7 8 8 8 6 5
2 1 1 1 2 3 3 1 2 0 0 1 2 3 3 2 1 2 1 5 6 2 3 4 4 6 5 9 6 3 4 3 1 2 2 1 1 1 0 1 2 2 2 4 3 2 2 4 5 7 3 6 8 7 9 10 8 7 7 5 4 5 5 7 7 5 12 14 10 10 9 11 10 10 9 9 8 9 10 11 11 10 10 7 6 5 5
6 8 5 3 1 1 1 2 2 1 2 1 2 3 3 3 4 3 2 1 1 2 2 3 2 3 2 4 3 4 5 1 1 1 0 2 0 2 2 0 1 0 3 1 2 2 5 6 5 6 4 7 8 9 10 11 10 9 8 5 4 4 8 10 10 8 6 12 12 11 9 10 9 8 8 11 11 10 8 8 9 8 7 7 6 5 4
0 1 1 1 2 2 1 4 1 2 2 1 3 5 5 3 2 2 1 3 2 3 3 5 4 8 5 3 4 2 3 2 0 0 1 0 2 0 1 1 3 5 1 1 0 6 6 1 3 4 6 6 8 9 10 10 6 4 2 1 5 9 10 11 11 12 9 8 9 9 9 9 8 8 9 9 11 12 9 7 6 9 7 6 6 4 3
1 1 1 1 3 1 2 2 0 1 3 4 2 3 4 6 3 3 3 3 4 5 5 5 5 6 5 5 2 1 1 3 1 2 2 1 1 2 1 2 2 1 1 2 2 2 1 3 2 3 4 6 9 9 7 5 6 7 6 7 11 13 14 14 12 12 11 10 10 9 8 7 8 9 9 9 8 9 10 9 7 8 7 6 5 4 2
4 3 3 3 2 1 2 3 3 3 2 2 4 4 3 3 5 5 6 2 3 3 7 8 6 7 7 5 5 4 1 2 2 2 1 0 2 3 2 0 1 1 1 2 3 6 6 4 5 8 8 9 7 6 4 6 7 9 13 11 10 12 13 14 12 12 11 10 9 10 9 9 10 10 9 7 8 8 8 7 7 7 6 6 4 3 1
2 1 2 1 3 2 2 5 6 4 2 2 5 6 6 6 3 4 3 3 6 6 6 4 8 8 7 5 2 0 1 1 3 3 2 1 2 1 1 2 3 3 4 5 4 2 2 5 7 8 8 5 3 3 8 9 7 9 12 11 11 12 11 12 12 12 10 11 10 10 9 10 10 10 9 9 7 7 7 7 6 5 6 5 3 2 2
3 1 1 3 3 3 6 6 2 4 4 4 3 5 6 3 2 5 5 3 4 3 5 3 3 2 4 4 2 5 4 1 2 2 1 2 1 1 0 1 3 2 2 3 4 3 4 6 8 7 4 4 6 9 9 8 7 12 13 12 12 11 11 11 11 10 10 11 10 10 11 11 11 11 11 10 7 5 6 5 5 5 5 5 5 4 4
1 2 3 2 1 2 3 3 5 6 6 5 3 1 2 3 5 6 6 3 4 7 5 4 3 3 2 1 1 2 2 2 3 3 0 1 2 4 3 3 4 5 3 3 3 4 5 7 5 1 4 5 7 10 10 10 11 11 12 13 11 11 11 11 11 10 9 9 9 10 10 10 10 10 9 8 8 6 4 5 6 5 5 6 5 5 4
2 3 2 2 3 4 5 2 2 5 3 3 2 3 2 4 5 6 3 2 3 2 2 2 2 3 2 2 1 1 1 2 3 2 3 4 3 1 1 4 3 3 2 3 2 4 6 5 2 3 5 8 8 11 11 8 10 10 10 10 10 10 10 11 10 9 9 9 11 12 10 9 9 9 9 9 8 5 4 5 5 6 5 5 5 4 3
1 3 4 3 7 5 1 3 4 3 3 3 2 1 1 1 2 3 0 1 0 4 2 4 2 2 2 1 2 3 4 2 3 4 3 4 2 2 5 4 2 4 5 6 6 6 6 2 4 6 5 8 8 9 11 11 10 11 10 10 9 10 10 11 11 11 11 12 12 11 11 9 8 8 7 7 6 6 5 4 5 5 5 4 4 4 3
4 5 4 4 6 8 7 6 5 6 6 6 6 5 3 5 4 5 2 1 0 3 5 2 3 2 1 4 3 1 1 2 2 2 4 4 3 4 2 6 5 6 7 7 6 7 2 3 6 9 9 10 9 9 9 9 10 10 10 10 11 12 11 11 11 10 10 9 10 9 8 7 7 7 7 8 7 7 6 4 2 4 4 4 4 3 3
Wind_Direction
335 335 337 337 342 348 349 345 341 357 357 6 345 326 310 216 239 281 299 320 358 16 264 310 330 248 239 276 261 250 254 249 275 287 289 307 274 277 220 204 37 264 178 108 274 106 290 279 271 226 154 182 192 161 133 110 82 84 279 31 283 73 71 35 299 319 298 322 323 332 37 81 57 39 95 112 158 176 163 175 186 138 116 77 10 76 251
334 334 336 338 340 346 350 347 343 352 42 20 309 3 307 299 298 305 269 113 274 199 198 256 265 276 293 271 268 279 273 290 297 278 280 259 280 290 297 308 186 223 173 127 259 135 30 291 8 356 323 99 229 131 130 131 128 108 214 129 248 75 301 117 33 0 340 341 348 359 335 43 123 214 228 196 127 75 119 98 27 94 231 161 119 199 289
332 333 334 336 339 342 349 350 346 344 39 9 49 355 317 290 263 237 288 327 136 199 199 160 222 262 300 307 305 311 297 224 253 265 277 270 252 340 294 224 296 292 279 225 232 194 167 281 297 171 276 176 57 104 113 105 96 94 181 126 116 98 190 98 116 126 112 146 324 340 350 274 267 229 9 201 126 132 104 176 24 104 245 93 114 204 256
328 332 332 334 336 339 347 349 348 343 25 4 46 313 335 315 331 301 306 324 88 230 198 161 201 293 308 324 275 227 267 279 243 257 273 254 238 199 209 304 342 287 318 25 51 316 216 144 261 7 286 323 47 210 113 110 124 158 143 136 79 124 78 97 151 147 178 204 215 245 172 308 335 282 114 183 209 152 113 99 96 150 193 137 212 160 146
324 330 332 331 334 337 341 347 348 342 8 39 65 283 191 303 245 271 315 325 350 267 319 299 188 225 221 233 288 301 271 306 308 271 311 268 186 270 189 219 330 300 18 300 284 226 313 355 85 287 172 329 94 352 94 89 131 134 107 110 79 76 68 270 133 163 185 186 205 235 159 25 288 16 338 306 209 175 141 136 186 172 98 172 245 184 142
321 327 331 332 332 336 339 342 346 342 341 101 295 305 224 182 255 290 286 259 256 349 314 26 348 305 4 247 279 276 289 286 268 311 258 314 303 53 329 37 177 196 209 299 332 312 309 83 135 297 6 77 49 89 24 113 167 109 85 34 113 135 133 226 123 214 226 203 214 5 32 73 274 313 342 31 325 144 144 228 180 134 139 185 216 180 161
318 325 329 331 332 333 338 340 342 341 334 131 290 279 261 235 296 286 346 316 292 276 292 322 291 309 298 256 256 269 253 263 242 226 317 325 313 127 231 292 290 286 266 111 235 286 12 324 299 165 152 105 81 26 6 10 13 100 51 31 120 87 98 214 141 105 334 344 356 18 46 355 15 356 342 50 61 276 190 174 182 163 173 175 142 166 173
318 322 327 330 332 331 335 340 341 341 301 203 233 229 272 282 15 314 350 292 298 296 295 302 343 300 289 275 271 280 298 289 303 286 247 307 310 318 296 282 307 299 290 217 163 168 127 210 319 300 68 335 5 187 188 167 346 51 124 137 348 104 271 199 51 59 318 304 340 31 49 67 40 320 32 66 71 51 72 83 69 67 52 36 133 143 171
317 319 325 329 331 331 332 338 341 340 295 251 216 259 196 277 334 318 316 310 288 280 260 228 237 269 318 282 274 262 282 320 339 302 271 264 286 28 356 318 325 318 358 58 111 149 157 199 217 225 162 72 227 122 259 131 137 63 64 66 7 78 205 50 56 70 318 316 33 344 2 61 90 349 19 59 59 62 1 74 214 116 151 132 102 111 186
314 318 322 326 330 331 330 336 338 342 305 239 270 267 240 266 290 284 231 259 279 300 318 305 296 262 227 220 322 358 314 329 340 331 294 230 57 23 348 344 12 321 334 291 208 212 172 236 252 239 215 187 246 208 187 156 152 176 113 342 111 137 121 85 73 78 272 267 30 346 6 27 8 321 242 118 92 134 78 25 19 43 143 120 145 201 204
316 317 317 322 330 330 330 333 336 342 328 231 248 270 330 4 329 328 281 264 292 259 293 273 246 256 276 119 313 329 318 327 341 350 301 332 330 343 1 2 8 291 265 272 263 215 208 204 253 107 46 19 355 285 213 189 159 147 145 91 55 118 113 140 158 119 237 299 345 18 50 45 237 232 204 181 151 117 91 35 312 317 163 210 181 180 177
318 313 311 318 327 329 330 331 333 337 334 278 268 274 288 313 312 263 263 241 265 296 264 259 200 290 322 322 330 308 310 321 325 323 304 302 292 315 356 335 29 348 268 262 268 258 245 19 19 1 23 9 359 344 176 140 154 132 138 134 164 148 129 162 146 113 222 285 23 39 285 236 243 299 272 187 121 105 106 94 33 -0 345 96 101 119 138
321 316 311 315 324 327 330 332 332 335 337 313 265 255 253 6 312 264 247 256 251 260 262 273 285 261 235 297 288 290 300 310 324 322 304 289 311 337 318 319 343 305 326 310 349 43 60 331 2 26 315 0 346 355 21 58 106 125 123 146 134 157 130 158 51 130 61 62 66 103 240 234 281 288 305 63 100 95 76 29 7 359 344 295 82 116 145
324 321 320 321 324 324 330 333 332 332 335 334 278 256 260 253 252 284 261 256 264 251 301 309 295 291 231 216 274 296 321 320 322 317 316 309 324 297 330 10 305 301 315 316 29 64 31 27 32 16 328 3 4 5 289 283 155 149 142 175 143 146 110 113 129 225 166 197 152 208 297 331 344 12 11 342 249 202 136 113 330 338 330 337 142 134 124
323 327 328 329 322 323 330 333 331 331 334 340 289 271 250 234 237 265 293 261 246 284 243 239 267 357 324 246 195 263 297 314 328 315 306 294 282 331 345 328 320 334 306 4 11 43 131 106 29 57 337 40 264 255 305 318 289 143 164 144 139 148 148 228 122 247 121 132 133 350 34 209 271 245 280 275 288 243 133 101 326 323 337 338 126 136 137
317 325 328 327 326 326 331 330 332 333 335 343 306 277 251 237 262 282 274 262 197 263 255 217 255 301 303 278 199 208 251 297 296 308 317 309 293 318 9 336 331 327 340 59 105 99 85 103 194 101 212 200 228 55 295 323 323 311 68 110 99 21 88 142 141 171 89 73 132 198 168 238 209 258 271 288 332 329 127 73 21 281 323 321 54 109 129
309 319 324 327 329 329 330 332 333 335 334 348 328 303 280 174 211 238 262 251 237 229 270 327 334 267 260 296 235 218 139 184 69 337 313 317 333 343 324 331 324 359 341 75 6 70 52 75 133 147 287 209 49 211 251 9 6 333 334 46 73 77 37 68 60 112 176 141 131 207 194 184 243 230 274 283 317 75 63 55 276 262 314 309 73 101 138
304 310 320 327 328 329 329 332 334 336 337 336 332 304 292 279 237 2 284 261 229 256 251 273 344 5 305 319 293 292 259 112 93 240 270 289 333 357 320 340 347 332 348 88 25 73 98 125 156 159 205 258 202 116 232 210 209 215 180 109 126 75 25 73 177 161 160 128 233 341 298 282 253 241 254 303 306 74 105 197 223 240 264 357 98 86 93
296 303 315 323 326 325 328 333 335 336 339 339 326 279 253 233 245 236 267 287 264 257 264 284 277 270 327 345 251 275 269 232 144 123 296 343 348 325 285 289 27 343 352 354 43 122 137 238 122 126 142 290 29 213 229 63 243 295 125 94 68 358 97 337 83 117 164 189 133 205 235 236 212 264 224 263 112 200 205 228 189 143 139 79 95 100 95
286 293 306 317 323 324 328 333 335 335 337 341 346 264 270 277 254 215 221 241 256 271 265 250 264 276 9 59 7 2 326 7 54 127 129 186 333 350 24 354 327 18 340 30 56 244 120 206 205 178 185 202 244 163 45 272 277 150 202 187 133 203 137 203 183 195 72 60 88 37 201 257 190 244 4 33 111 229 194 146 154 157 124 102 73 85 83
283 287 296 307 314 322 330 335 337 335 334 338 348 310 315 283 293 256 238 248 279 302 285 338 32 69 343 282 13 357 332 316 339 116 171 194 253 91 132 204 223 336 13 29 88 339 36 347 328 29 212 132 286 40 203 216 347 280 234 216 129 205 96 262 259 170 161 145 159 192 213 221 219 130 159 244 175 156 147 128 116 188 127 110 95 57 94
282 284 293 299 307 319 329 335 337 335 334 337 342 304 265 280 328 336 328 278 258 217 234 255 301 284 269 263 257 243 245 272 276 199 28 338 312 167 222 19 41 32 24 340 40 12 13 302 351 42 29 331 13 137 208 84 264 283 321 79 32 255 164 177 166 240 125 199 210 241 245 258 358 114 132 134 148 127 133 117 133 132 85 145 98 99 80
276 281 289 296 302 313 324 334 335 335 334 336 345 297 291 314 316 330 324 316 272 270 279 290 300 285 272 256 232 224 228 231 240 190 204 180 334 343 19 356 24 330 39 39 113 153 287 35 343 77 42 25 14 325 359 126 178 342 18 290 179 286 282 189 83 133 108 63 110 149 57 73 67 39 94 115 90 88 110 116 106 104 145 139 117 123 107
276 281 284 291 299 306 317 329 335 333 335 332 333 318 299 289 286 333 318 265 321 310 307 262 167 265 232 261 236 213 217 223 211 214 178 172 130 312 334 291 282 36 48 276 210 97 194 153 249 20 135 272 49 68 100 39 62 311 32 344 337 310 357 38 95 184 71 122 274 125 137 109 93 91 68 80 100 117 119 106 108 142 127 106 115 117 123
273 278 284 292 299 306 313 323 331 332 331 329 331 291 281 290 283 352 1 30 0 24 291 321 248 232 250 277 317 291 211 206 204 209 186 187 189 143 148 99 273 138 134 123 14 48 40 66 342 13 63 274 106 121 260 119 295 74 57 279 20 326 353 64 4 39 102 200 187 192 90 113 126 127 119 110 112 109 109 124 134 137 137 119 123 100 95
270 275 283 291 299 307 311 315 325 329 327 325 330 319 305 270 305 318 271 250 233 219 279 284 273 292 288 303 276 285 319 299 204 203 203 200 194 204 159 82 350 42 107 139 75 85 90 42 110 332 70 297 55 118 289 207 209 286 133 220 196 258 15 56 329 68 331 60 62 86 82 47 32 73 95 132 138 127 118 120 119 107 106 100 69 66 112
272 279 287 293 298 304 309 313 318 322 325 323 318 286 262 276 268 276 266 305 339 293 251 251 290 305 350 318 279 277 267 267 232 195 198 196 186 188 207 167 143 144 94 61 26 104 72 93 96 255 165 224 333 280 186 335 38 343 309 287 311 41 23 47 50 43 4 183 230 125 104 181 244 149 152 155 163 127 125 94 107 104 110 101 98 70 72
273 279 281 287 296 300 306 313 315 320 322 323 313 287 247 241 243 222 248 222 189 234 286 309 310 286 292 271 260 250 299 299 243 229 215 197 186 176 186 186 173 131 137 93 28 92 121 127 232 245 30 331 12 318 311 296 40 16 262 255 12 69 37 16 149 156 225 179 194 264 132 156 188 176 188 163 163 127 127 152 117 95 131 131 107 96 64
269 273 279 284 290 298 305 310 316 317 323 331 316 303 283 239 238 229 239 242 215 273 277 269 272 320 262 270 310 313 309 348 346 319 266 210 188 182 183 183 180 163 110 88 109 125 140 216 182 141 170 210 92 277 6 284 230 232 234 251 341 224 10 349 305 133 139 217 221 203 161 163 198 205 189 181 182 143 141 140 136 140 138 137 120 133 126
270 273 277 285 290 297 303 307 312 314 321 359 351 0 6 327 38 86 45 291 219 216 270 329 303 256 303 328 296 292 307 309 301 285 279 253 199 185 186 175 189 172 147 159 159 181 217 154 253 217 188 159 181 244 180 232 217 255 227 181 261 262 70 322 292 299 281 274 227 216 157 143 163 173 197 190 177 136 134 148 152 132 125 122 124 133 136
270 275 279 284 292 293 298 301 303 307 321 17 51 54 57 284 261 141 13 355 332 215 207 157 236 293 313 250 249 276 279 277 270 266 258 253 230 205 188 173 175 161 156 152 151 219 150 203 158 228 142 153 143 175 207 196 257 289 226 198 214 200 184 209 244 224 212 237 264 261 180 159 165 73 66 107 129 115 92 87 119 124 137 114 133 145 115
266 270 274 278 284 290 293 293 292 294 296 268 215 189 178 208 297 339 336 306 316 255 100 6 312 345 259 289 253 228 242 251 242 203 235 174 237 196 190 176 183 174 158 170 207 116 218 204 148 171 156 194 163 242 178 213 233 237 249 219 217 195 201 215 222 219 202 211 207 100 75 204 204 145 201 176 143 132 125 137 147 146 133 113 87 90 107
272 277 280 283 284 288 291 289 288 281 228 251 255 270 281 287 287 295 301 325 313 254 219 106 193 229 284 253 287 272 210 219 223 166 263 194 224 180 191 169 155 159 169 110 208 203 213 160 169 183 213 153 178 194 196 221 227 221 227 237 215 181 207 251 206 167 174 196 170 152 197 198 233 236 130 154 137 134 134 137 132 87 84 94 100 94 83
276 280 283 285 286 284 285 285 286 293 299 297 300 271 253 260 276 276 229 174 246 244 143 146 225 180 259 314 7 289 156 164 238 161 234 269 194 162 195 151 167 145 213 191 255 204 292 153 177 195 119 210 182 173 233 225 222 225 222 230 212 195 231 267 229 180 178 188 187 181 196 190 100 125 124 135 144 97 92 102 108 99 104 104 106 110 109
277 281 281 284 283 284 283 287 299 266 243 250 254 257 255 265 255 234 170 161 85 338 288 260 159 251 343 359 254 266 324 14 306 213 194 261 212 178 186 132 285 188 274 123 128 177 189 220 160 173 226 169 173 224 217 218 214 216 218 220 212 180 205 260 273 237 209 202 216 223 120 129 131 151 175 171 123 120 112 105 114 113 108 106 102 103 105
277 280 281 281 286 302 327 301 228 230 238 233 231 236 244 251 250 216 196 196 200 217 198 239 141 215 162 201 217 269 197 205 219 208 202 121 356 345 121 110 161 234 169 162 211 196 198 224 133 231 233 199 217 191 216 198 199 200 207 215 211 192 184 195 208 232 238 230 195 163 93 100 128 159 127 110 106 105 112 110 90 95 108 107 114 123 103
274 277 288 302 325 87 234 235 221 194 216 194 227 233 267 49 29 140 192 242 288 255 236 284 227 222 178 221 251 276 352 297 225 159 161 145 178 289 71 49 207 236 158 206 187 170 224 216 224 237 213 213 232 210 205 199 196 199 207 217 218 209 193 189 197 200 209 229 194 115 129 110 97 95 87 93 104 99 83 82 108 109 111 117 114 87 96
278 285 290 89 173 246 267 249 213 232 217 219 166 85 250 130 162 235 149 173 230 178 229 205 251 236 249 211 232 259 336 260 35 164 289 306 125 217 207 137 225 149 203 200 220 155 136 195 214 214 246 244 232 218 216 213 212 206 207 208 214 206 201 198 198 198 205 139 83 111 98 110 111 119 114 112 109 105 111 121 117 119 114 107 104 105 88
307 301 299 223 222 219 212 233 300 308 156 144 131 112 252 163 94 89 190 181 195 206 207 187 227 196 215 249 270 306 157 340 340 349 151 270 105 288 345 173 265 156 289 166 262 157 210 260 286 220 256 233 214 227 221 223 225 227 219 220 214 210 184 191 182 179 186 186 175 173 155 151 143 141 123 119 116 117 127 122 117 111 109 108 103 97 94
114 201 210 194 215 238 257 311 350 37 53 110 247 142 195 193 167 200 141 172 215 203 183 226 199 189 191 214 231 281 196 219 239 297 173 299 296 187 257 102 269 123 203 181 234 174 163 193 215 208 247 220 228 232 220 221 218 219 215 228 225 224 218 202 198 200 178 173 155 155 135 133 131 134 134 129 129 123 120 113 118 115 104 105 109 106 107
193 211 234 241 271 289 277 9 44 54 90 129 78 260 267 165 208 193 142 190 192 226 187 190 140 175 181 195 213 243 289 278 239 179 118 166 252 86 88 166 223 151 234 187 269 143 148 201 196 216 231 202 199 210 215 226 230 235 225 201 196 205 165 137 136 131 118 117 120 123 128 129 127 130 135 134 130 127 124 114 102 101 104 106 106 115 134
195 251 107 2 246 263 335 29 86 57 317 210 165 189 188 235 172 201 191 201 207 212 233 183 206 168 182 178 196 195 276 219 194 144 186 230 235 125 205 349 356 127 194 229 156 92 161 218 222 238 239 192 203 194 203 218 226 227 235 222 189 184 168 149 143 143 135 135 137 134 133 127 126 127 128 121 115 116 113 109 109 108 111 119 116 115 113
296 284 252 257 10 327 245 258 206 179 166 174 211 163 177 212 215 183 176 253 244 187 234 158 221 148 159 144 230 194 214 238 212 287 135 222 173 68 76 316 126 249 245 306 93 157 209 224 224 242 220 197 193 199 205 209 217 217 224 219 193 168 150 150 138 132 133 130 132 131 130 124 123 125 122 114 110 101 103 111 117 118 116 116 116 119 121
306 12 246 149 204 239 97 249 214 123 236 193 171 206 161 197 156 180 184 235 197 218 194 152 211 142 194 193 164 172 232 286 23 61 328 173 96 278 141 191 209 236 222 32 180 209 221 235 203 208 202 201 210 205 212 213 201 183 215 200 141 133 132 126 120 113 105 102 106 113 114 113 114 107 103 104 109 111 109 101 104 111 114 109 104 109 119
190 217 167 190 211 199 133 236 130 244 203 207 203 221 185 196 167 149 177 241 161 210 187 187 154 155 168 193 165 269 134 203 304 123 240 152 130 182 167 241 236 102 143 217 233 267 245 243 255 212 223 212 209 213 211 185 154 155 147 135 134 135 131 127 125 119 120 119 120 115 111 109 97 94 98 104 108 117 117 118 118 105 102 101 97 84 63
205 228 189 216 219 169 209 256 157 215 246 197 200 190 159 206 157 181 232 224 218 215 167 188 171 166 181 196 155 199 148 106 99 209 215 56 127 203 221 197 65 187 221 192 216 213 212 227 218 210 220 219 225 222 154 148 146 135 128 130 137 130 129 127 129 126 128 125 121 113 114 107 109 107 105 110 111 107 107 113 111 111 112 99 97 102 113
238 244 245 273 244 209 173 230 210 216 193 195 192 178 195 209 205 184 207 205 229 215 223 199 176 172 173 188 166 339 60 102 162 258 76 90 196 253 17 103 208 209 209 215 211 226 235 230 226 225 223 212 177 140 136 143 143 133 124 130 129 129 129 124 125 125 130 124 120 115 110 110 111 112 109 96 92 102 110 112 117 120 115 120 132 111 38
224 214 199 233 229 185 210 231 250 281 263 222 216 199 210 191 219 258 270 240 241 233 209 185 178 174 214 313 94 163 167 195 88 294 179 199 43 48 45 218 238 227 214 167 218 221 216 222 222 222 207 173 143 126 125 124 132 129 128 128 128 126 123 121 121 125 124 120 117 111 112 116 117 116 114 117 116 117 120 124 124 112 99 93 85 81 73
260 218 210 230 232 219 247 227 193 242 260 268 271 241 140 150 212 234 243 252 228 255 239 177 188 107 180 234 114 130 188 235 154 216 157 96 156 197 174 219 194 224 254 169 203 212 214 228 225 184 148 149 137 133 135 137 134 127 126 127 129 128 125 122 124 122 119 113 109 109 115 120 119 117 116 115 116 132 143 128 117 107 106 105 100 90 66
219 241 234 252 293 271 241 261 252 269 261 268 254 268 203 204 229 246 215 259 218 156 35 43 66 108 226 119 157 178 207 194 179 178 169 203 205 211 149 230 216 178 206 205 199 233 230 230 142 111 150 143 142 135 133 135 129 125 127 128 127 121 121 122 118 117 113 112 113 117 120 117 118 122 127 134 144 149 129 113 111 107 107 112 113 107 101
231 250 251 183 214 234 93 235 206 230 242 235 215 203 132 221 215 259 236 264 342 108 176 196 191 133 160 144 180 154 226 178 143 194 175 197 185 176 212 205 223 197 204 203 211 217 222 193 126 120 129 136 145 141 139 140 136 133 134 127 121 116 118 117 118 114 114 116 120 119 119 127 137 136 135 126 114 106 96 90 105 118 126 136 138 137 129
209 218 237 232 220 238 237 265 287 266 260 258 267 245 212 257 238 246 218 77 342 173 221 180 120 153 166 192 200 187 353 99 204 163 198 242 188 189 193 166 199 197 190 205 229 238 218 145 155 141 151 143 147 144 139 134 135 133 130 127 125 124 125 126 125 125 125 123 123 126 132 133 128 120 115 106 105 100 106 122 155 146 144 161 187 174 163